Total_Precipitation_Accumulation
1.92 1.89 1.90 1.81 1.75 1.75 1.86 2.05 2.27 2.06 1.54 1.16 1.06 1.03 1.03 1.04 1.11 1.03 0.93 1.06 1.06 1.07 1.14 1.18 1.16 1.16 1.19 1.26 1.39 1.49 1.58 1.67 1.76 1.83 1.89 1.97 2.14 2.39
1.79 1.75 1.72 1.69 1.71 1.72 1.76 1.84 2.02 2.13 1.80 1.23 1.04 1.02 1.07 1.07 1.13 1.01 0.94 1.08 1.03 1.01 1.01 1.06 1.08 1.07 1.07 1.10 1.16 1.23 1.29 1.35 1.45 1.61 1.77 1.88 1.98 2.13
1.68 1.67 1.58 1.51 1.57 1.58 1.58 1.63 1.71 1.83 1.78 1.30 1.07 1.05 1.08 1.04 1.03 0.95 0.88 0.85 0.83 0.91 0.89 0.92 0.98 1.00 1.00 1.03 1.08 1.15 1.18 1.21 1.29 1.42 1.58 1.72 1.84 1.89
1.50 1.54 1.50 1.45 1.45 1.46 1.48 1.45 1.43 1.46 1.55 1.40 1.09 0.98 0.95 0.90 0.89 0.89 0.84 0.80 0.73 0.83 0.85 0.87 0.94 0.98 0.96 0.95 0.97 1.03 1.10 1.15 1.19 1.25 1.34 1.44 1.58 1.73
1.36 1.42 1.43 1.46 1.46 1.43 1.41 1.37 1.34 1.35 1.43 1.46 1.19 0.98 0.91 0.88 0.88 0.85 0.82 0.81 0.75 0.81 0.84 0.84 0.87 0.91 0.93 0.93 0.93 0.93 0.97 1.04 1.12 1.18 1.26 1.34 1.43 1.55
1.29 1.36 1.39 1.37 1.32 1.28 1.30 1.26 1.29 1.34 1.37 1.43 1.34 1.14 0.98 0.88 0.93 0.94 0.91 0.83 0.81 0.80 0.90 0.89 0.90 0.90 0.91 0.89 0.86 0.84 0.86 0.95 1.09 1.25 1.38 1.44 1.46 1.49
1.35 1.32 1.35 1.40 1.34 1.27 1.26 1.24 1.25 1.34 1.43 1.50 1.41 1.22 1.05 0.95 0.88 0.84 0.90 0.90 0.87 0.80 0.85 0.84 0.86 0.88 0.90 0.95 0.97 0.97 1.00 1.09 1.23 1.38 1.50 1.57 1.59 1.61
1.32 1.23 1.22 1.31 1.30 1.31 1.30 1.27 1.31 1.40 1.51 1.56 1.47 1.27 1.01 0.90 0.91 1.04 1.15 1.28 1.19 0.84 0.87 0.97 1.02 1.10 1.06 1.03 1.15 1.18 1.19 1.26 1.34 1.41 1.49 1.56 1.59 1.61
1.20 1.14 1.10 1.08 1.16 1.08 1.14 1.21 1.23 1.32 1.41 1.42 1.37 1.12 0.98 0.92 1.10 1.28 1.31 1.34 1.17 0.95 1.10 1.26 1.16 1.13 1.05 1.09 1.26 1.20 1.18 1.20 1.25 1.31 1.36 1.41 1.46 1.49
1.08 1.02 1.01 0.99 1.01 1.09 1.17 1.23 1.13 1.07 1.06 1.03 1.01 0.96 0.96 1.03 1.25 1.50 1.61 1.66 1.43 1.20 1.18 1.31 1.12 1.02 0.96 1.01 1.17 1.15 1.09 1.12 1.18 1.26 1.31 1.35 1.38 1.38
1.08 1.04 1.02 0.97 1.08 1.25 1.30 1.31 1.14 0.98 0.99 1.05 1.11 1.11 1.15 1.20 1.28 1.55 1.81 1.97 1.73 1.24 1.04 1.10 1.04 1.01 0.99 0.98 1.06 1.18 1.13 1.11 1.16 1.21 1.23 1.26 1.33 1.38
1.10 1.07 1.15 1.10 1.20 1.30 1.23 1.25 1.17 0.97 0.91 0.92 0.95 0.97 0.91 0.94 1.13 1.28 1.71 2.19 1.92 1.48 1.01 1.07 1.12 1.26 1.49 1.07 0.95 1.03 1.09 1.12 1.12 1.15 1.18 1.23 1.29 1.27
1.16 1.08 1.07 1.27 1.35 1.37 1.25 1.07 1.09 1.15 1.04 0.94 0.92 0.91 0.90 0.89 0.93 0.98 1.26 1.96 2.32 1.81 1.10 1.45 1.68 1.42 1.59 1.24 0.97 0.99 1.06 1.13 1.19 1.20 1.24 1.28 1.30 1.36
1.09 1.01 1.05 1.28 1.30 1.26 1.16 1.17 1.26 1.20 1.00 1.02 1.01 0.98 0.95 0.94 0.95 0.99 1.06 1.25 1.60 1.77 1.40 1.68 2.13 1.72 1.81 1.51 1.10 1.03 1.10 1.25 1.40 1.39 1.33 1.43 1.41 1.43
1.08 1.14 1.19 1.22 1.17 1.12 1.15 1.17 1.13 1.05 1.08 1.16 1.11 1.00 0.95 0.98 1.03 1.10 1.12 1.14 1.23 1.28 1.28 1.36 1.68 1.72 1.90 1.84 1.39 1.17 1.27 1.35 1.51 1.70 1.67 1.54 1.41 1.40
1.13 1.16 1.15 1.13 1.11 1.12 1.18 1.12 1.01 1.04 1.20 1.26 1.16 1.05 1.04 1.11 1.14 1.20 1.35 1.37 1.47 1.39 1.26 1.20 1.29 1.59 1.72 1.43 1.49 1.44 1.42 1.70 1.74 1.92 1.91 1.68 1.47 1.33
1.14 1.04 1.01 1.02 1.04 1.03 1.00 1.01 1.02 1.07 1.16 1.16 1.20 1.19 1.17 1.25 1.33 1.40 1.56 1.65 1.69 1.47 1.27 1.12 1.09 1.19 1.36 1.44 1.48 1.35 1.42 1.66 1.86 1.98 2.00 1.88 1.66 1.46
1.10 1.00 0.96 0.94 0.95 0.96 0.94 0.94 0.97 1.03 1.12 1.25 1.31 1.33 1.37 1.44 1.52 1.56 1.69 1.82 1.73 1.44 1.23 1.08 1.06 1.18 1.23 1.22 1.28 1.39 1.48 1.67 1.81 1.84 1.75 1.81 1.76 1.52
0.92 0.88 0.88 0.88 0.89 0.90 0.93 0.97 1.00 1.00 1.15 1.36 1.49 1.54 1.61 1.65 1.70 1.74 1.75 1.73 1.58 1.36 1.20 1.09 1.19 1.58 1.65 1.22 0.96 1.17 1.63 1.76 1.70 1.69 1.57 1.52 1.61 1.45
0.82 0.82 0.81 0.82 0.87 0.92 0.97 1.06 1.11 1.13 1.24 1.40 1.51 1.57 1.67 1.80 1.84 1.76 1.65 1.60 1.49 1.29 1.11 0.98 1.07 1.52 2.04 1.79 1.44 1.24 1.37 1.67 1.79 1.75 1.47 1.32 1.37 1.36
0.78 0.78 0.78 0.82 0.89 0.96 1.02 1.11 1.22 1.33 1.41 1.57 1.62 1.63 1.70 1.88 1.86 1.65 1.51 1.41 1.35 1.23 1.08 0.88 0.84 1.11 1.51 1.76 1.65 1.33 1.36 1.48 1.64 1.89 1.79 1.69 1.51 1.34
0.81 0.81 0.81 0.84 0.92 0.98 1.04 1.15 1.28 1.35 1.44 1.54 1.60 1.63 1.69 1.80 1.75 1.50 1.32 1.28 1.20 1.12 1.05 0.90 0.84 0.98 1.32 1.71 1.54 1.23 1.21 1.24 1.25 1.26 1.47 1.83 2.25 2.25
0.89 0.92 0.91 0.91 0.96 1.03 1.10 1.17 1.29 1.36 1.43 1.56 1.60 1.56 1.54 1.50 1.33 1.27 1.22 1.21 1.21 1.15 1.09 1.04 0.96 1.00 1.14 1.28 1.38 1.26 1.13 1.08 1.04 1.17 1.41 1.38 1.42 1.60